IT9KWW-13 Weather Reports


time (UTC)temp
C
wind
direction
speed
KPH
gust
KPH
rain 1hr
cm
rain 24hr
cm
rain mn
cm
humidity
%
barometer
mb
20260504082008 20 180 8.0 8.0 0.00 0.00 0.00 57 1018.0
20260504081807 20 202 6.4 8.0 0.00 0.00 0.00 59 1018.0
20260504081607 20 202 9.7 9.7 0.00 0.00 0.00 56 1018.0
20260504081408 20 202 9.7 11.3 0.00 0.00 0.00 55 1018.0
20260504081207 21 180 9.7 11.3 0.00 0.00 0.00 55 1018.0
20260504081007 21 135 4.8 4.8 0.00 0.00 0.00 57 1018.0
20260504080808 21 202 8.0 8.0 0.00 0.00 0.00 56 1018.0
20260504080607 21 158 9.7 9.7 0.00 0.00 0.00 55 1018.0
20260504080407 21 158 6.4 6.4 0.00 0.00 0.00 54 1018.0
20260504080208 21 158 9.7 9.7 0.00 0.00 0.00 58 1018.0
20260504070407 20 135 3.2 3.2 0.00 0.00 0.00 64 1018.0
20260504070208 20 135 3.2 3.2 0.00 0.00 0.00 64 1018.0
20260504060208 18 292 0.0 0.0 0.00 0.00 0.00 63 1018.0
20260504050720 12 270 4.8 4.8 0.00 0.00 0.00 79 1016.9
20260504050519 12 270 6.4 8.0 0.00 0.00 0.00 80 1016.9
20260504050307 12 292 6.4 6.4 0.00 0.00 0.00 80 1016.9
20260504045843 12 292 8.0 8.0 0.00 0.00 0.00 79 1016.9
20260504045631 12 315 4.8 6.4 0.00 0.00 0.00 79 1016.9
20260504045431 12 292 8.0 8.0 0.00 0.00 0.00 79 1016.9
20260504045231 12 248 3.2 3.2 0.00 0.00 0.00 79 1016.9
20260504045031 12 292 4.8 4.8 0.00 0.00 0.00 79 1016.9
20260504044819 12 270 3.2 3.2 0.00 0.00 0.00 79 1016.9
20260504044607 12 292 4.8 6.4 0.00 0.00 0.00 79 1016.9
20260504044355 12 292 4.8 4.8 0.00 0.00 0.00 79 1016.9
20260504044143 12 292 4.8 4.8 0.00 0.00 0.00 80 1016.9
20260504043931 12 292 6.4 6.4 0.00 0.00 0.00 80 1016.9
20260504043731 12 292 3.2 3.2 0.00 0.00 0.00 79 1016.9
20260504043519 12 292 3.2 3.2 0.00 0.00 0.00 79 1016.9
20260504043307 12 292 3.2 3.2 0.00 0.00 0.00 79 1016.9
20260504043055 12 292 3.2 3.2 0.00 0.00 0.00 79 1016.9
20260504042843 12 270 8.0 8.0 0.00 0.00 0.00 79 1016.9
20260504042631 12 270 4.8 6.4 0.00 0.00 0.00 79 1016.9
20260504042431 12 270 8.0 8.0 0.00 0.00 0.00 79 1016.9
20260504042219 12 292 8.0 8.0 0.00 0.00 0.00 79 1016.9
20260504042007 12 315 4.8 4.8 0.00 0.00 0.00 80
20260504041807 12 292 4.8 6.4 0.00 0.00 0.00 80
20260504041616 11 270 8.0 8.0 0.00 0.00 0.00 82
20260504041319 12 270 3.2 3.2 0.00 0.00 0.00 82 1015.9
20260504041119 12 292 3.2 3.2 0.00 0.00 0.00 81 1015.9
20260504040907 12 292 3.2 3.2 0.00 0.00 0.00 81 1015.9
20260504040707 12 292 3.2 3.2 0.00 0.00 0.00 81 1015.9
20260504040455 12 292 3.2 3.2 0.00 0.00 0.00 81 1015.9
20260504040243 12 292 3.2 3.2 0.00 0.00 0.00 81 1015.9
20260504040043 12 270 3.2 3.2 0.00 0.00 0.00 82 1015.9
20260504035843 12 270 4.8 4.8 0.00 0.00 0.00 82 1015.9
20260504035631 12 270 4.8 4.8 0.00 0.00 0.00 81 1015.9
20260504035431 12 292 3.2 3.2 0.00 0.00 0.00 81 1015.9
20260504035231 12 292 3.2 3.2 0.00 0.00 0.00 81 1015.9
20260504035019 12 292 3.2 3.2 0.00 0.00 0.00 81 1015.9
20260504034819 12 292 3.2 3.2 0.00 0.00 0.00 81 1016.9
20260504034607 12 292 3.2 3.2 0.00 0.00 0.00 81 1016.9
20260504034355 12 292 3.2 3.2 0.00 0.00 0.00 81 1016.9
20260504034155 12 292 4.8 4.8 0.00 0.00 0.00 81 1016.9
20260504033955 12 292 4.8 4.8 0.00 0.00 0.00 81 1016.9
20260504033743 12 292 4.8 4.8 0.00 0.00 0.00 82 1016.9
20260504033543 12 292 3.2 3.2 0.00 0.00 0.00 82 1016.9
20260504033343 12 270 3.2 3.2 0.00 0.00 0.00 82 1016.9
20260504033131 12 292 4.8 4.8 0.00 0.00 0.00 82 1016.9
20260504032931 12 270 8.0 8.0 0.00 0.00 0.00 82 1016.9
20260504032731 12 292 4.8 4.8 0.00 0.00 0.00 82 1016.9
20260504032519 12 292 3.2 3.2 0.00 0.00 0.00 82 1016.9
20260504032319 12 292 4.8 6.4 0.00 0.00 0.00 82 1016.9
20260504032119 12 292 4.8 6.4 0.00 0.00 0.00 82 1016.9
20260504031907 12 270 4.8 4.8 0.00 0.00 0.00 81 1016.9
20260504031707 12 292 3.2 3.2 0.00 0.00 0.00 81 1016.9
20260504031507 12 292 3.2 3.2 0.00 0.00 0.00 81 1016.9
20260504031255 12 292 4.8 4.8 0.00 0.00 0.00 82 1016.9
20260504031055 12 292 6.4 6.4 0.00 0.00 0.00 82 1016.9
20260504030855 12 270 4.8 4.8 0.00 0.00 0.00 81 1016.9
20260504030643 12 270 4.8 4.8 0.00 0.00 0.00 81 1016.9
20260504030443 12 292 4.8 6.4 0.00 0.00 0.00 81 1016.9
20260504030019 12 292 6.4 8.0 0.00 0.00 0.00 81 1016.9
20260504025819 12 270 4.8 4.8 0.00 0.00 0.00 81 1016.9
20260504025619 12 292 4.8 4.8 0.00 0.00 0.00 81 1016.9
20260504025407 12 292 6.4 8.0 0.00 0.00 0.00 80 1016.9
20260504025207 12 270 6.4 8.0 0.00 0.00 0.00 80 1016.9
20260504025007 12 315 6.4 6.4 0.00 0.00 0.00 81 1016.9
20260504024755 12 292 3.2 3.2 0.00 0.00 0.00 81 1016.9
20260504024555 12 248 9.7 9.7 0.00 0.00 0.00 81 1016.9
20260504024355 12 292 3.2 3.2 0.00 0.00 0.00 81 1016.9
20260504024143 12 292 3.2 3.2 0.00 0.00 0.00 81 1016.9
20260504023943 12 315 8.0 8.0 0.00 0.00 0.00 81 1016.9
20260504023743 12 292 8.0 8.0 0.00 0.00 0.00 82 1016.9
20260504023542 12 292 8.0 8.0 0.00 0.00 0.00 82 1016.9
20260504023331 12 292 6.4 8.0 0.00 0.00 0.00 83 1016.9
20260504023131 12 292 4.8 4.8 0.00 0.00 0.00 83 1016.9
20260504022919 11 292 3.2 3.2 0.00 0.00 0.00 83 1016.9
20260504022719 11 292 6.4 8.0 0.00 0.00 0.00 83 1016.9
20260504022519 11 292 3.2 3.2 0.00 0.00 0.00 83 1016.9
20260504022307 11 315 4.8 4.8 0.00 0.00 0.00 83 1016.9
20260504022107 11 292 3.2 3.2 0.00 0.00 0.00 83 1016.9
20260504021907 11 315 3.2 3.2 0.00 0.00 0.00 83 1016.9
20260504021655 11 292 4.8 4.8 0.00 0.00 0.00 83 1016.9
20260504021455 12 292 4.8 4.8 0.00 0.00 0.00 83 1016.9
20260504021255 12 292 3.2 3.2 0.00 0.00 0.00 82 1016.9
20260504021043 12 292 6.4 8.0 0.00 0.00 0.00 82 1016.9
20260504020843 12 292 8.0 8.0 0.00 0.00 0.00 82 1016.9
20260504020643 12 292 6.4 8.0 0.00 0.00 0.00 82 1016.9
20260504020431 12 338 6.4 6.4 0.00 0.00 0.00 82 1016.9
20260504020230 12 292 8.0 8.0 0.00 0.00 0.00 82 1016.9
20260504020031 12 292 8.0 8.0 0.00 0.00 0.00 82 1016.9
20260504015819 12 292 6.4 8.0 0.00 0.00 0.00 82 1016.9
20260504015619 12 248 8.0 8.0 0.00 0.00 0.00 82 1016.9
20260504015419 12 292 3.2 3.2 0.00 0.00 0.00 82 1016.9
20260504015207 12 292 4.8 6.4 0.00 0.00 0.00 82 1016.9
20260504015007 11 292 8.0 8.0 0.00 0.00 0.00 82 1016.9
20260504014807 11 270 8.0 8.0 0.00 0.00 0.00 82 1016.9
20260504014555 11 292 6.4 6.4 0.00 0.00 0.00 82 1016.9
20260504014355 11 292 6.4 8.0 0.00 0.00 0.00 82 1016.9
20260504014154 11 292 8.0 8.0 0.00 0.00 0.00 82 1016.9
20260504013943 11 292 9.7 9.7 0.00 0.00 0.00 83 1016.9
20260504013743 11 270 8.0 8.0 0.00 0.00 0.00 84 1016.9
20260504013543 11 270 8.0 8.0 0.00 0.00 0.00 84 1016.9
20260504013331 11 292 3.2 3.2 0.00 0.00 0.00 84 1016.9
20260504013131 11 292 3.2 3.2 0.00 0.00 0.00 84 1016.9
20260504012931 11 292 4.8 4.8 0.00 0.00 0.00 84 1016.9
20260504012719 11 315 4.8 4.8 0.00 0.00 0.00 84 1016.9
20260504012518 11 292 6.4 6.4 0.00 0.00 0.00 84 1016.9
20260504012319 11 292 6.4 6.4 0.00 0.00 0.00 84 1016.9
20260504012107 11 292 6.4 6.4 0.00 0.00 0.00 84 1016.9
20260504011907 11 270 3.2 3.2 0.00 0.00 0.00 83 1016.9
20260504011707 11 292 4.8 4.8 0.00 0.00 0.00 83 1016.9
20260504011455 11 292 3.2 3.2 0.00 0.00 0.00 83 1016.9
20260504011255 11 292 6.4 8.0 0.00 0.00 0.00 83 1016.9
20260504011054 11 292 4.8 4.8 0.00 0.00 0.00 83 1016.9
20260504010843 12 292 8.0 8.0 0.00 0.00 0.00 83 1016.9
20260504010643 12 292 4.8 4.8 0.00 0.00 0.00 83 1016.9
20260504010442 12 292 4.8 6.4 0.00 0.00 0.00 82 1016.9
20260504010231 12 315 3.2 3.2 0.00 0.00 0.00 82 1016.9
20260504010031 12 315 3.2 3.2 0.00 0.00 0.00 82 1016.9
20260504005831 12 248 3.2 3.2 0.00 0.00 0.00 81 1016.9
20260504005619 12 315 8.0 8.0 0.00 0.00 0.00 82 1016.9
20260504005418 12 315 9.7 9.7 0.00 0.00 0.00 82 1016.9
20260504005218 12 315 4.8 4.8 0.00 0.00 0.00 82 1016.9
20260504005007 12 292 6.4 6.4 0.00 0.00 0.00 82 1016.9
20260504004806 12 270 4.8 4.8 0.00 0.00 0.00 82 1016.9
20260504004607 12 292 8.0 8.0 0.00 0.00 0.00 82 1016.9
20260504004355 12 248 8.0 9.7 0.00 0.00 0.00 82 1016.9
20260504004154 12 270 4.8 4.8 0.00 0.00 0.00 82 1016.9
20260504003955 12 270 4.8 4.8 0.00 0.00 0.00 82 1016.9
20260504003743 12 270 6.4 6.4 0.00 0.00 0.00 82 1016.9
20260504003543 12 292 4.8 4.8 0.00 0.00 0.00 82 1016.9
20260504003342 12 315 6.4 8.0 0.00 0.00 0.00 82 1016.9
20260504003131 12 292 3.2 3.2 0.00 0.00 0.00 82 1016.9
20260504002931 12 315 3.2 3.2 0.00 0.00 0.00 82 1016.9
20260504002730 12 315 3.2 3.2 0.00 0.00 0.00 82 1016.9
20260504002519 12 315 4.8 4.8 0.00 0.00 0.00 81 1016.9
20260504002319 12 315 3.2 3.2 0.00 0.00 0.00 81 1016.9
20260504002119 12 270 6.4 8.0 0.00 0.00 0.00 81 1016.9
20260504001907 12 270 6.4 6.4 0.00 0.00 0.00 81 1016.9
20260504001706 12 270 3.2 3.2 0.00 0.00 0.00 80 1016.9
20260504001506 12 270 6.4 8.0 0.00 0.00 0.00 81 1016.9
20260504001255 12 292 4.8 4.8 0.00 0.00 0.00 81 1016.9
20260504001054 12 292 8.0 8.0 0.00 0.00 0.00 81 1016.9
20260504000855 12 270 8.0 8.0 0.00 0.00 0.00 82 1016.9
20260504000643 12 292 4.8 4.8 0.00 0.00 0.00 82 1016.9
20260504000442 12 270 9.7 9.7 0.00 0.00 0.00 82 1016.9
20260504000242 12 270 8.0 8.0 0.00 0.00 0.00 82 1016.9
20260504000031 12 270 8.0 8.0 0.00 0.00 0.00 82 1016.9
20260503235830 12 270 8.0 8.0 0.00 0.00 0.00 82 1016.9
20260503235630 12 270 4.8 6.4 0.00 0.00 0.00 82 1016.9
20260503235419 12 292 4.8 4.8 0.00 0.00 0.00 82 1016.9
20260503235219 12 292 6.4 8.0 0.00 0.00 0.00 82 1016.9
20260503235018 12 292 3.2 3.2 0.00 0.00 0.00 82 1016.9
20260503234807 12 292 3.2 3.2 0.00 0.00 0.00 81 1016.9
20260503234606 12 292 8.0 8.0 0.00 0.00 0.00 81 1016.9
20260503234406 12 292 4.8 4.8 0.00 0.00 0.00 81 1016.9
20260503234155 12 270 8.0 9.7 0.00 0.00 0.00 81 1016.9
20260503233954 12 292 8.0 8.0 0.00 0.00 0.00 81 1016.9
20260503233754 12 270 8.0 8.0 0.00 0.00 0.00 81 1016.9
20260503233543 12 292 4.8 4.8 0.00 0.00 0.00 81 1016.9
20260503233342 12 292 4.8 4.8 0.00 0.00 0.00 81 1016.9
20260503233142 12 292 4.8 4.8 0.00 0.00 0.00 81 1016.9
20260503232942 12 292 4.8 6.4 0.00 0.00 0.00 80 1016.9
20260503232530 12 292 4.8 4.8 0.00 0.00 0.00 80 1016.9
20260503232319 12 292 4.8 4.8 0.00 0.00 0.00 80 1016.9
20260503232118 12 292 4.8 4.8 0.00 0.00 0.00 80 1016.9
20260503231918 12 315 6.4 8.0 0.00 0.00 0.00 80 1016.9
20260503231707 12 292 3.2 3.2 0.00 0.00 0.00 80 1016.9
20260503231506 12 315 4.8 4.8 0.00 0.00 0.00 80 1016.9
20260503231306 12 292 4.8 4.8 0.00 0.00 0.00 81 1016.9
20260503231055 12 248 6.4 6.4 0.00 0.00 0.00 81 1016.9
20260503230854 12 292 3.2 3.2 0.00 0.00 0.00 81 1016.9
20260503230654 12 292 4.8 6.4 0.00 0.00 0.00 81 1016.9
20260503230443 12 292 8.0 8.0 0.00 0.00 0.00 81 1016.9
20260503230242 12 292 6.4 8.0 0.00 0.00 0.00 80 1018.0
20260503230042 12 292 8.0 8.0 0.00 0.00 0.00 80 1018.0
20260503225831 13 338 8.0 8.0 0.00 0.00 0.00 80 1018.0
20260503225630 13 315 8.0 8.0 0.00 0.00 0.00 79 1018.0
20260503225430 13 315 9.7 9.7 0.00 0.00 0.00 78 1018.0
20260503225219 13 315 6.4 6.4 0.00 0.00 0.00 78 1018.0
20260503225018 13 315 3.2 3.2 0.00 0.00 0.00 79 1018.0
20260503224818 13 292 4.8 4.8 0.00 0.00 0.00 79 1018.0
20260503224607 13 270 8.0 8.0 0.00 0.00 0.00 80 1018.0
20260503224406 13 270 8.0 9.7 0.00 0.00 0.00 79 1018.0
20260503224206 13 270 9.7 9.7 0.00 0.00 0.00 79 1018.0
20260503223955 13 248 9.7 9.7 0.00 0.00 0.00 78 1018.0
20260503223754 13 270 6.4 6.4 0.00 0.00 0.00 77 1018.0
20260503223554 13 270 6.4 8.0 0.00 0.00 0.00 76 1018.0
20260503223343 13 292 8.0 8.0 0.00 0.00 0.00 75 1018.0
20260503223142 13 292 9.7 9.7 0.00 0.00 0.00 76 1018.0
20260503222942 13 292 6.4 6.4 0.00 0.00 0.00 77 1018.0
20260503222733 13 292 8.0 8.0 0.00 0.00 0.00 77 1018.0
20260503222530 13 270 8.0 8.0 0.00 0.00 0.00 78 1018.0
20260503222330 13 270 8.0 8.0 0.00 0.00 0.00 78 1018.0
20260503222119 13 270 8.0 8.0 0.00 0.00 0.00 78 1018.0
20260503221918 13 248 8.0 8.0 0.00 0.00 0.00 78 1016.9
20260503221718 13 270 8.0 8.0 0.00 0.00 0.00 77 1016.9
20260503221507 13 270 9.7 9.7 0.00 0.00 0.00 77 1016.9
20260503221306 13 248 8.0 8.0 0.00 0.00 0.00 76 1016.9
20260503221106 13 270 4.8 4.8 0.00 0.00 0.00 76 1016.9
20260503220855 13 292 6.4 6.4 0.00 0.00 0.00 76 1016.9
20260503220654 13 292 8.0 8.0 0.00 0.00 0.00 76 1016.9
20260503220454 13 270 6.4 8.0 0.00 0.00 0.00 76 1016.9
20260503220243 13 292 3.2 3.2 0.00 0.00 0.00 77 1016.9
20260503220042 13 270 4.8 4.8 0.00 0.00 0.00 77 1016.9
20260503215842 13 270 4.8 4.8 0.00 0.00 0.00 77 1016.9
20260503215631 13 292 4.8 4.8 0.00 0.00 0.00 78 1016.9
20260503215430 13 270 4.8 4.8 0.00 0.00 0.00 78 1016.9
20260503215230 13 270 8.0 8.0 0.00 0.00 0.00 78 1016.9
20260503215019 13 270 4.8 6.4 0.00 0.00 0.00 78 1016.9
20260503214818 13 270 6.4 6.4 0.00 0.00 0.00 77 1016.9
20260503214618 13 270 3.2 3.2 0.00 0.00 0.00 77 1016.9
20260503214407 13 270 6.4 6.4 0.00 0.00 0.00 76 1016.9
20260503214206 13 292 6.4 8.0 0.00 0.00 0.00 76 1016.9
20260503214006 13 292 6.4 8.0 0.00 0.00 0.00 76 1016.9
20260503213755 13 292 3.2 3.2 0.00 0.00 0.00 75 1016.9
20260503213554 13 270 6.4 6.4 0.00 0.00 0.00 75 1016.9
20260503213354 13 270 8.0 8.0 0.00 0.00 0.00 75 1016.9
20260503213143 13 270 8.0 8.0 0.00 0.00 0.00 76 1016.9
20260503212942 13 270 8.0 8.0 0.00 0.00 0.00 76 1016.9
20260503212742 13 270 6.4 8.0 0.00 0.00 0.00 76 1016.9
20260503212531 13 270 8.0 8.0 0.00 0.00 0.00 75 1016.9
20260503212330 13 270 8.0 8.0 0.00 0.00 0.00 75 1016.9
20260503212130 14 270 3.2 3.2 0.00 0.00 0.00 74 1016.9
20260503211919 14 270 8.0 8.0 0.00 0.00 0.00 74 1016.9
20260503211718 14 270 6.4 8.0 0.00 0.00 0.00 73 1016.9
20260503211518 14 292 4.8 4.8 0.00 0.00 0.00 73 1016.9
20260503211307 14 292 6.4 6.4 0.00 0.00 0.00 73 1016.9
20260503211106 14 292 3.2 3.2 0.00 0.00 0.00 73 1016.9
20260503210906 14 270 4.8 4.8 0.00 0.00 0.00 73 1016.9
20260503210655 14 270 9.7 9.7 0.00 0.00 0.00 72 1016.9
20260503210454 14 292 9.7 9.7 0.00 0.00 0.00 72 1016.9
20260503210254 14 292 4.8 4.8 0.00 0.00 0.00 72 1016.9
20260503210043 14 248 8.0 8.0 0.00 0.00 0.00 71 1016.9
20260503205842 14 270 8.0 8.0 0.00 0.00 0.00 71 1016.9
20260503205642 14 292 6.4 8.0 0.00 0.00 0.00 71 1016.9
20260503205431 14 270 8.0 8.0 0.00 0.00 0.00 71 1016.9
20260503205230 14 292 6.4 6.4 0.00 0.00 0.00 71 1016.9
20260503205030 14 292 6.4 6.4 0.00 0.00 0.00 71 1016.9
20260503204819 14 292 4.8 4.8 0.00 0.00 0.00 71 1016.9
20260503204618 14 292 4.8 4.8 0.00 0.00 0.00 71 1016.9
20260503204418 14 292 3.2 3.2 0.00 0.00 0.00 71 1016.9
20260503204207 14 292 3.2 3.2 0.00 0.00 0.00 71 1016.9
20260503204006 15 292 6.4 6.4 0.00 0.00 0.00 71 1016.9
20260503203806 15 292 4.8 6.4 0.00 0.00 0.00 71 1016.9
20260503203555 15 292 6.4 8.0 0.00 0.00 0.00 71 1016.9
20260503203354 15 292 4.8 4.8 0.00 0.00 0.00 70 1016.9
20260503203154 15 292 4.8 4.8 0.00 0.00 0.00 70 1016.9
20260503202943 15 315 8.0 8.0 0.00 0.00 0.00 69 1016.9
20260503202742 15 315 11.3 11.3 0.00 0.00 0.00 68 1016.9
20260503202542 14 315 9.7 9.7 0.00 0.00 0.00 68 1016.9
20260503202331 14 315 8.0 8.0 0.00 0.00 0.00 69 1016.9
20260503202130 14 315 6.4 6.4 0.00 0.00 0.00 70 1016.9
20260503201930 14 338 8.0 8.0 0.00 0.00 0.00 71 1016.9
20260503201720 14 315 3.2 3.2 0.00 0.00 0.00 72 1016.9
20260503201518 14 292 3.2 3.2 0.00 0.00 0.00 72 1016.9
20260503201319 14 315 4.8 4.8 0.00 0.00 0.00 72 1016.9
20260503201107 14 292 4.8 6.4 0.00 0.00 0.00 72 1016.9
20260503200906 14 292 4.8 4.8 0.00 0.00 0.00 72 1016.9
20260503200706 14 292 6.4 6.4 0.00 0.00 0.00 72 1016.9
20260503200455 14 292 4.8 4.8 0.00 0.00 0.00 73 1016.9
20260503200254 14 270 4.8 4.8 0.00 0.00 0.00 73 1016.9
20260503200054 15 292 4.8 4.8 0.00 0.00 0.00 72 1016.9
20260503195843 15 292 4.8 4.8 0.00 0.00 0.00 72 1016.9
20260503195642 15 270 3.2 3.2 0.00 0.00 0.00 72 1016.9
20260503195442 15 270 3.2 3.2 0.00 0.00 0.00 72 1016.9
20260503195231 15 270 4.8 4.8 0.00 0.00 0.00 72 1016.9
20260503195030 15 270 3.2 3.2 0.00 0.00 0.00 71 1016.9
20260503194830 15 270 3.2 3.2 0.00 0.00 0.00 71 1016.9
20260503194619 15 270 4.8 4.8 0.00 0.00 0.00 71 1016.9
20260503194418 15 270 6.4 8.0 0.00 0.00 0.00 71 1016.9
20260503194218 15 270 3.2 3.2 0.00 0.00 0.00 71 1016.9
20260503194007 15 270 4.8 4.8 0.00 0.00 0.00 70 1016.9
20260503193806 15 270 8.0 8.0 0.00 0.00 0.00 69 1016.9
20260503193606 15 292 6.4 8.0 0.00 0.00 0.00 69 1016.9
20260503193355 16 270 3.2 3.2 0.00 0.00 0.00 68 1016.9
20260503193154 16 315 3.2 3.2 0.00 0.00 0.00 68 1016.9
20260503192954 16 292 3.2 3.2 0.00 0.00 0.00 68 1016.9
20260503192744 16 315 3.2 3.2 0.00 0.00 0.00 68 1016.9
20260503192542 16 338 6.4 6.4 0.00 0.00 0.00 67 1016.9
20260503192342 16 315 3.2 3.2 0.00 0.00 0.00 67 1016.9
20260503192131 16 315 4.8 4.8 0.00 0.00 0.00 67 1016.9
20260503191930 16 292 4.8 4.8 0.00 0.00 0.00 67 1016.9
20260503191730 16 292 3.2 3.2 0.00 0.00 0.00 66 1016.9
20260503191522 16 270 3.2 3.2 0.00 0.00 0.00 66 1016.9
20260503191318 16 270 3.2 3.2 0.00 0.00 0.00 65 1016.9
20260503191118 16 292 4.8 4.8 0.00 0.00 0.00 64 1016.9
20260503190917 16 270 3.2 3.2 0.00 0.00 0.00 65 1016.9
20260503190706 16 292 4.8 4.8 0.00 0.00 0.00 65 1016.9
20260503190506 16 292 4.8 4.8 0.00 0.00 0.00 65 1016.9
20260503190255 17 292 3.2 3.2 0.00 0.00 0.00 65 1016.9
20260503190054 17 292 3.2 3.2 0.00 0.00 0.00 64 1015.9
20260503185854 17 292 3.2 3.2 0.00 0.00 0.00 63 1015.9
20260503185643 17 292 3.2 3.2 0.00 0.00 0.00 62 1015.9
20260503185442 17 292 3.2 3.2 0.00 0.00 0.00 62 1015.9
20260503185242 17 292 3.2 3.2 0.00 0.00 0.00 61 1015.9
20260503185031 17 292 3.2 3.2 0.00 0.00 0.00 61 1015.9
20260503184830 16 292 1.6 1.6 0.00 0.00 0.00 61 1015.9
20260503184630 16 292 4.8 4.8 0.00 0.00 0.00 61 1015.9
20260503184419 16 292 4.8 4.8 0.00 0.00 0.00 62 1015.9
20260503184218 16 248 8.0 8.0 0.00 0.00 0.00 65 1015.9
20260503184018 16 270 3.2 3.2 0.00 0.00 0.00 67 1015.9
20260503183807 16 248 6.4 8.0 0.00 0.00 0.00 68 1015.9
20260503183606 16 248 8.0 8.0 0.00 0.00 0.00 70 1015.9
20260503183406 16 248 8.0 8.0 0.00 0.00 0.00 70 1015.9
20260503183155 16 248 8.0 8.0 0.00 0.00 0.00 69 1015.9
20260503182954 16 270 8.0 8.0 0.00 0.00 0.00 69 1015.9
20260503182754 17 270 8.0 8.0 0.00 0.00 0.00 70 1015.9
20260503182543 17 292 6.4 6.4 0.00 0.00 0.00 71 1015.9
20260503182342 17 292 6.4 6.4 0.00 0.00 0.00 70 1015.9
20260503182142 17 292 4.8 4.8 0.00 0.00 0.00 70 1015.9
20260503181931 17 338 1.6 1.6 0.00 0.00 0.00 70 1015.9
20260503181730 17 315 3.2 3.2 0.00 0.00 0.00 70 1015.9
20260503181530 17 315 3.2 3.2 0.00 0.00 0.00 69 1015.9
20260503181319 17 45 0.0 0.0 0.00 0.00 0.00 68 1015.9
20260503181118 17 45 1.6 1.6 0.00 0.00 0.00 67 1015.9
20260503180918 17 45 0.0 0.0 0.00 0.00 0.00 67 1015.9
20260503180707 17 22 3.2 3.2 0.00 0.00 0.00 67 1015.9
20260503180506 17 45 0.0 0.0 0.00 0.00 0.00 66 1015.9
20260503180306 17 45 3.2 3.2 0.00 0.00 0.00 66 1015.9
20260503180055 17 45 8.0 8.0 0.00 0.00 0.00 66 1015.9
20260503175854 17 68 3.2 3.2 0.00 0.00 0.00 67 1015.9
20260503175654 17 45 6.4 8.0 0.00 0.00 0.00 69 1015.9
20260503175443 17 45 1.6 1.6 0.00 0.00 0.00 70 1015.9
20260503175242 17 22 3.2 3.2 0.00 0.00 0.00 71 1015.9
20260503175042 17 22 3.2 3.2 0.00 0.00 0.00 72 1015.9
20260503174831 18 338 3.2 3.2 0.00 0.00 0.00 72 1015.9
20260503174630 18 0 3.2 3.2 0.00 0.00 0.00 72 1014.9
20260503174430 18 338 0.0 0.0 0.00 0.00 0.00 72 1014.9
20260503174219 18 338 6.4 6.4 0.00 0.00 0.00 71 1014.9
20260503174018 18 22 3.2 3.2 0.00 0.00 0.00 72 1014.9
20260503173818 18 338 4.8 4.8 0.00 0.00 0.00 72 1014.9
20260503173607 18 22 9.7 9.7 0.00 0.00 0.00 72 1014.9
20260503173406 18 22 6.4 8.0 0.00 0.00 0.00 72 1014.9
20260503173206 18 22 9.7 9.7 0.00 0.00 0.00 72 1014.9
20260503172955 18 22 8.0 8.0 0.00 0.00 0.00 72 1014.9
20260503172754 18 22 9.7 9.7 0.00 0.00 0.00 72 1014.9
20260503172554 19 45 9.7 9.7 0.00 0.00 0.00 72 1014.9
20260503172343 19 68 12.9 14.5 0.00 0.00 0.00 73 1014.9
20260503172142 19 22 9.7 9.7 0.00 0.00 0.00 72 1014.9
20260503171942 19 22 9.7 11.3 0.00 0.00 0.00 72 1014.9
20260503171731 19 22 4.8 6.4 0.00 0.00 0.00 71 1014.9
20260503171530 20 68 6.4 6.4 0.00 0.00 0.00 70 1014.9
20260503171330 20 22 8.0 8.0 0.00 0.00 0.00 70 1014.9
20260503171119 20 68 8.0 8.0 0.00 0.00 0.00 69 1014.9
20260503170918 20 22 9.7 9.7 0.00 0.00 0.00 69 1014.9
20260503170718 20 45 8.0 8.0 0.00 0.00 0.00 68 1014.9
20260503170507 20 22 8.0 9.7 0.00 0.00 0.00 67 1014.9
20260503170306 21 45 4.8 4.8 0.00 0.00 0.00 66 1014.9
20260503170106 21 22 9.7 9.7 0.00 0.00 0.00 65 1014.9
20260503160142 22 68 8.0 8.0 0.00 0.00 0.00 47 1014.9
20260503150855 21 135 4.8 6.4 0.00 0.00 0.00 46 1014.9
20260503150654 21 68 9.7 9.7 0.00 0.00 0.00 45 1014.9
20260503150454 21 135 6.4 6.4 0.00 0.00 0.00 45 1014.9
20260503150255 21 112 9.7 9.7 0.00 0.00 0.00 45 1014.9
20260503140233 22 90 9.7 9.7 0.00 0.00 0.00 45 1015.9
20260503131230 22 135 12.9 14.5 0.00 0.00 0.00 42 1015.9
20260503131030 22 158 12.9 14.5 0.00 0.00 0.00 43 1015.9
20260503130819 22 158 11.3 12.9 0.00 0.00 0.00 42 1015.9
20260503130618 22 158 9.7 9.7 0.00 0.00 0.00 44 1015.9
20260503130418 22 135 11.3 12.9 0.00 0.00 0.00 43 1015.9
20260503130219 22 135 20.9 24.1 0.00 0.00 0.00 44 1015.9
20260503120219 22 135 14.5 19.3 0.00 0.00 0.00 42 1016.9
20260503110818 22 135 11.3 11.3 0.00 0.00 0.00 38 1016.9
20260503110618 22 112 17.7 20.9 0.00 0.00 0.00 40 1016.9
20260503110418 22 90 12.9 14.5 0.00 0.00 0.00 40 1016.9
20260503110219 21 112 14.5 19.3 0.00 0.00 0.00 41 1016.9
20260503100219 21 135 8.0 8.0 0.00 0.00 0.00 42 1018.0
20260503090454 22 68 8.0 8.0 0.00 0.00 0.00 35 1018.0
20260503090254 22 270 6.4 8.0 0.00 0.00 0.00 35 1018.0